N151ND KODO-KJKA

Flight info

Callsign N151ND
Flight time 2h 28m
Altitude 25000
Route UGABE ACT J50 AEX BFM
Aircraft B350/L-SBDFGRYZ/LB1

Departure

Time 2026-04-12 19:50
Airport Odessa Schlemeyer Field (KODO)

Arrival

Time 2026-04-12 22:19
Airport Jack Edwards National Airport (KJKA)
Time Latitude Longitude Altitude Speed Heading
2026-04-12 19:34 31.92346 -102.39262 2980 ft 0 kts 291°
2026-04-12 19:34 31.92323 -102.39259 2980 ft 0 kts 82°
2026-04-12 19:46 31.92323 -102.39258 2980 ft 2 kts 82°
2026-04-12 19:46 31.92327 -102.39234 2980 ft 7 kts 69°
2026-04-12 19:47 31.92375 -102.39186 2980 ft 11 kts 11°
2026-04-12 19:47 31.92439 -102.39234 2979 ft 12 kts 301°
2026-04-12 19:47 31.92478 -102.39311 2980 ft 10 kts 301°
2026-04-12 19:47 31.92510 -102.39376 2981 ft 8 kts 300°
2026-04-12 19:48 31.92531 -102.39407 2981 ft 5 kts 338°
2026-04-12 19:48 31.92539 -102.39407 2981 ft 0 kts 20°
2026-04-12 19:49 31.92541 -102.39406 2981 ft 2 kts 21°
2026-04-12 19:49 31.92578 -102.39380 2980 ft 10 kts 30°
2026-04-12 19:49 31.92621 -102.39343 2979 ft 7 kts 86°
2026-04-12 19:49 31.92586 -102.39268 2979 ft 20 kts 121°
2026-04-12 19:50 31.92407 -102.38918 2981 ft 85 kts 120°
2026-04-12 19:50 31.92001 -102.38125 3015 ft 136 kts 124°
2026-04-12 19:50 31.91470 -102.37115 3495 ft 153 kts 123°
2026-04-12 19:50 31.90910 -102.35946 3878 ft 171 kts 122°
2026-04-12 19:51 31.90400 -102.34635 4373 ft 182 kts 118°
2026-04-12 19:51 31.89877 -102.33245 4774 ft 194 kts 118°
2026-04-12 19:51 31.89328 -102.31791 5296 ft 195 kts 118°
2026-04-12 19:51 31.89060 -102.30218 5883 ft 200 kts 90°
2026-04-12 19:52 31.89118 -102.28564 6448 ft 202 kts 89°
2026-04-12 19:52 31.89116 -102.26889 6933 ft 206 kts 95°
2026-04-12 19:52 31.89038 -102.25215 7477 ft 205 kts 95°
2026-04-12 19:52 31.88956 -102.23529 8028 ft 207 kts 95°
2026-04-12 19:53 31.88880 -102.21815 8545 ft 211 kts 94°
2026-04-12 19:53 31.88816 -102.20106 9089 ft 213 kts 94°
2026-04-12 19:53 31.88755 -102.18351 9634 ft 216 kts 94°
2026-04-12 19:53 31.88695 -102.16572 10178 ft 218 kts 94°
2026-04-12 19:54 31.88631 -102.14785 10679 ft 219 kts 94°
2026-04-12 19:54 31.88571 -102.12977 11168 ft 222 kts 95°
2026-04-12 19:54 31.88510 -102.11153 11673 ft 225 kts 95°
2026-04-12 19:54 31.88446 -102.09305 12195 ft 227 kts 95°
2026-04-12 19:55 31.88382 -102.07460 12735 ft 230 kts 95°
2026-04-12 19:55 31.88316 -102.05569 13247 ft 233 kts 96°
2026-04-12 19:55 31.88249 -102.03659 13774 ft 235 kts 96°
2026-04-12 19:55 31.88180 -102.01719 14255 ft 238 kts 96°
2026-04-12 19:56 31.88110 -101.99770 14738 ft 239 kts 96°
2026-04-12 19:56 31.88041 -101.97808 15231 ft 241 kts 96°
2026-04-12 19:56 31.87972 -101.95829 15732 ft 243 kts 96°
2026-04-12 19:56 31.87902 -101.93838 16214 ft 244 kts 96°
2026-04-12 19:57 31.87830 -101.91851 16675 ft 246 kts 96°
2026-04-12 19:57 31.87758 -101.89827 17160 ft 248 kts 96°
2026-04-12 19:57 31.87685 -101.87790 17641 ft 250 kts 97°
2026-04-12 19:57 31.87610 -101.85733 18111 ft 252 kts 97°
2026-04-12 19:58 31.87535 -101.83666 18546 ft 254 kts 97°
2026-04-12 19:58 31.87459 -101.81583 18941 ft 256 kts 97°
2026-04-12 19:58 31.87381 -101.79487 19324 ft 257 kts 97°
2026-04-12 19:58 31.87303 -101.77376 19712 ft 259 kts 97°
2026-04-12 19:59 31.87225 -101.75273 20103 ft 261 kts 97°
2026-04-12 19:59 31.87145 -101.73132 20492 ft 263 kts 97°
2026-04-12 19:59 31.87063 -101.70969 20882 ft 265 kts 97°
2026-04-12 19:59 31.86980 -101.68793 21262 ft 267 kts 97°
2026-04-12 20:00 31.86898 -101.66604 21639 ft 269 kts 97°
2026-04-12 20:00 31.86815 -101.64398 22011 ft 270 kts 97°
2026-04-12 20:00 31.86732 -101.62181 22378 ft 272 kts 98°
2026-04-12 20:00 31.86647 -101.59951 22735 ft 274 kts 98°
2026-04-12 20:01 31.86560 -101.57703 23083 ft 276 kts 98°
2026-04-12 20:01 31.86473 -101.55446 23429 ft 277 kts 98°
2026-04-12 20:01 31.86386 -101.53170 23744 ft 279 kts 98°
2026-04-12 20:01 31.86299 -101.50913 24036 ft 280 kts 98°
2026-04-12 20:02 31.86209 -101.48615 24335 ft 281 kts 98°
2026-04-12 20:02 31.86117 -101.46311 24599 ft 283 kts 98°
2026-04-12 20:02 31.86054 -101.44764 24713 ft 287 kts 98°
2026-04-12 20:02 31.85922 -101.41571 24870 ft 296 kts 97°
2026-04-12 20:03 31.85821 -101.39123 24952 ft 303 kts 97°
2026-04-12 20:03 31.85716 -101.36610 24970 ft 311 kts 97°
2026-04-12 20:03 31.85610 -101.34064 24974 ft 318 kts 97°
2026-04-12 20:03 31.85500 -101.31440 24981 ft 324 kts 97°
2026-04-12 20:04 31.85390 -101.28773 24978 ft 328 kts 97°
2026-04-12 20:04 31.85318 -101.26998 24980 ft 330 kts 97°
2026-04-12 20:04 31.85170 -101.23359 24980 ft 333 kts 97°
2026-04-12 20:04 31.85059 -101.20627 24983 ft 335 kts 97°
2026-04-12 20:05 31.84947 -101.17884 24983 ft 336 kts 97°
2026-04-12 20:05 31.84834 -101.15163 24983 ft 337 kts 98°
2026-04-12 20:05 31.84719 -101.12407 24988 ft 337 kts 98°
2026-04-12 20:05 31.84603 -101.09646 24984 ft 337 kts 98°
2026-04-12 20:06 31.84488 -101.06886 24979 ft 338 kts 98°
2026-04-12 20:06 31.84372 -101.04131 24987 ft 338 kts 98°
2026-04-12 20:06 31.84254 -101.01368 24982 ft 338 kts 98°
2026-04-12 20:06 31.84175 -100.99536 24981 ft 338 kts 98°
2026-04-12 20:07 31.84017 -100.95871 24982 ft 338 kts 98°
2026-04-12 20:07 31.83897 -100.93109 24985 ft 338 kts 98°
2026-04-12 20:07 31.83817 -100.91273 24980 ft 338 kts 98°
2026-04-12 20:07 31.83655 -100.87569 24983 ft 338 kts 99°
2026-04-12 20:08 31.83573 -100.85742 24983 ft 338 kts 99°
2026-04-12 20:08 31.83450 -100.82978 24986 ft 338 kts 99°
2026-04-12 20:08 31.83327 -100.80216 24988 ft 338 kts 99°
2026-04-12 20:08 31.83202 -100.77454 24986 ft 338 kts 99°
2026-04-12 20:09 31.83080 -100.74732 24983 ft 338 kts 99°
2026-04-12 20:09 31.82956 -100.71967 24984 ft 338 kts 99°
2026-04-12 20:09 31.82831 -100.69208 24982 ft 338 kts 99°
2026-04-12 20:09 31.82705 -100.66439 24984 ft 338 kts 99°
2026-04-12 20:10 31.82579 -100.63678 24989 ft 338 kts 99°
2026-04-12 20:10 31.82451 -100.60907 24989 ft 338 kts 99°
2026-04-12 20:10 31.82323 -100.58173 24988 ft 339 kts 99°
2026-04-12 20:10 31.82194 -100.55398 24981 ft 339 kts 100°
2026-04-12 20:11 31.82064 -100.52634 24980 ft 339 kts 100°
2026-04-12 20:11 31.81935 -100.49867 24986 ft 338 kts 100°
2026-04-12 20:11 31.81805 -100.47104 24990 ft 338 kts 100°
2026-04-12 20:11 31.81674 -100.44333 24989 ft 339 kts 100°
2026-04-12 20:12 31.81544 -100.41600 24987 ft 339 kts 100°
2026-04-12 20:12 31.81411 -100.38831 24991 ft 338 kts 100°
2026-04-12 20:12 31.81278 -100.36064 24989 ft 339 kts 101°
2026-04-12 20:12 31.81143 -100.33296 24989 ft 339 kts 101°
2026-04-12 20:13 31.81009 -100.30531 24993 ft 339 kts 101°
2026-04-12 20:13 31.80875 -100.27764 24991 ft 339 kts 101°
2026-04-12 20:13 31.80604 -100.22234 24992 ft 339 kts 101°
2026-04-12 20:14 31.80467 -100.19460 24998 ft 339 kts 101°
2026-04-12 20:14 31.80331 -100.16728 24993 ft 339 kts 101°
2026-04-12 20:14 31.80194 -100.13961 24998 ft 339 kts 101°
2026-04-12 20:14 31.80054 -100.11185 24992 ft 340 kts 102°
2026-04-12 20:15 31.79916 -100.08404 24991 ft 340 kts 101°
2026-04-12 20:15 31.79803 -100.05626 24990 ft 341 kts 101°
2026-04-12 20:15 31.79702 -100.02842 24990 ft 341 kts 101°
2026-04-12 20:15 31.79602 -100.00052 24988 ft 341 kts 101°
2026-04-12 20:16 31.79501 -99.97269 24989 ft 341 kts 101°
2026-04-12 20:16 31.79397 -99.94487 24989 ft 341 kts 101°
2026-04-12 20:16 31.79292 -99.91706 24988 ft 341 kts 101°
2026-04-12 20:16 31.79186 -99.88917 24989 ft 341 kts 101°
2026-04-12 20:17 31.79079 -99.86164 24990 ft 341 kts 101°
2026-04-12 20:17 31.78968 -99.83380 24987 ft 341 kts 101°
2026-04-12 20:17 31.78857 -99.80588 24990 ft 341 kts 101°
2026-04-12 20:17 31.78746 -99.77789 24995 ft 342 kts 101°
2026-04-12 20:18 31.78634 -99.74996 25002 ft 342 kts 102°
2026-04-12 20:18 31.78520 -99.72200 25005 ft 342 kts 102°
2026-04-12 20:18 31.78407 -99.69410 25013 ft 342 kts 102°
2026-04-12 20:18 31.78297 -99.66652 25019 ft 342 kts 102°
2026-04-12 20:19 31.78181 -99.63849 25027 ft 342 kts 102°
2026-04-12 20:19 31.78064 -99.61050 25032 ft 342 kts 102°
2026-04-12 20:19 31.77948 -99.58253 25041 ft 343 kts 102°
2026-04-12 20:19 31.77831 -99.55443 25042 ft 343 kts 102°
2026-04-12 20:20 31.77715 -99.52679 25046 ft 342 kts 102°
2026-04-12 20:20 31.77598 -99.49888 25051 ft 342 kts 102°
2026-04-12 20:20 31.77480 -99.47092 25056 ft 342 kts 102°
2026-04-12 20:20 31.77361 -99.44298 25054 ft 342 kts 102°
2026-04-12 20:21 31.77242 -99.41505 25056 ft 342 kts 102°
2026-04-12 20:21 31.77121 -99.38705 25056 ft 343 kts 102°
2026-04-12 20:21 31.77000 -99.35903 25055 ft 343 kts 102°
2026-04-12 20:21 31.76879 -99.33106 25053 ft 343 kts 102°
2026-04-12 20:22 31.76757 -99.30312 25048 ft 342 kts 102°
2026-04-12 20:22 31.76634 -99.27511 25045 ft 342 kts 102°
2026-04-12 20:22 31.76514 -99.24755 25043 ft 342 kts 102°
2026-04-12 20:22 31.76390 -99.21965 25044 ft 342 kts 102°
2026-04-12 20:23 31.76264 -99.19167 25034 ft 343 kts 102°
2026-04-12 20:23 31.76137 -99.16361 25014 ft 343 kts 102°
2026-04-12 20:23 31.76012 -99.13565 25018 ft 343 kts 102°
2026-04-12 20:23 31.75886 -99.10773 25023 ft 342 kts 102°
2026-04-12 20:24 31.75759 -99.07974 25024 ft 342 kts 103°
2026-04-12 20:24 31.75632 -99.05211 25028 ft 342 kts 103°
2026-04-12 20:24 31.75505 -99.02420 25029 ft 342 kts 103°
2026-04-12 20:24 31.75376 -98.99625 25028 ft 342 kts 103°
2026-04-12 20:25 31.75247 -98.96825 25028 ft 342 kts 103°
2026-04-12 20:25 31.75117 -98.94030 25037 ft 343 kts 103°
2026-04-12 20:25 31.74985 -98.91221 25028 ft 343 kts 103°
2026-04-12 20:25 31.74854 -98.88449 25028 ft 343 kts 103°
2026-04-12 20:26 31.74722 -98.85641 25029 ft 343 kts 103°
2026-04-12 20:26 31.74589 -98.82837 25026 ft 343 kts 103°
2026-04-12 20:26 31.74457 -98.80066 25022 ft 343 kts 103°
2026-04-12 20:26 31.74323 -98.77266 25021 ft 343 kts 103°
2026-04-12 20:27 31.74189 -98.74467 25025 ft 343 kts 103°
2026-04-12 20:27 31.74054 -98.71665 25042 ft 343 kts 102°
2026-04-12 20:27 31.73919 -98.68865 25045 ft 343 kts 103°
2026-04-12 20:27 31.73782 -98.66063 25051 ft 343 kts 103°
2026-04-12 20:28 31.73645 -98.63297 25050 ft 343 kts 103°
2026-04-12 20:28 31.73507 -98.60496 25047 ft 344 kts 103°
2026-04-12 20:28 31.73369 -98.57693 25051 ft 343 kts 103°
2026-04-12 20:28 31.73230 -98.54893 25047 ft 343 kts 103°
2026-04-12 20:29 31.73091 -98.52087 25047 ft 343 kts 103°
2026-04-12 20:29 31.72951 -98.49288 25046 ft 343 kts 103°
2026-04-12 20:29 31.72810 -98.46483 25045 ft 344 kts 103°
2026-04-12 20:29 31.72668 -98.43682 25045 ft 344 kts 103°
2026-04-12 20:30 31.72524 -98.40870 25041 ft 344 kts 103°
2026-04-12 20:30 31.72380 -98.38063 25041 ft 345 kts 103°
2026-04-12 20:30 31.72240 -98.35287 25041 ft 345 kts 103°
2026-04-12 20:30 31.72095 -98.32473 25039 ft 345 kts 103°
2026-04-12 20:31 31.71949 -98.29665 25042 ft 344 kts 103°
2026-04-12 20:31 31.71804 -98.26856 25044 ft 344 kts 103°
2026-04-12 20:31 31.71659 -98.24044 25047 ft 344 kts 103°
2026-04-12 20:31 31.71513 -98.21241 25046 ft 344 kts 103°
2026-04-12 20:32 31.71366 -98.18438 25046 ft 344 kts 103°
2026-04-12 20:32 31.71219 -98.15635 25045 ft 343 kts 103°
2026-04-12 20:32 31.71071 -98.12838 25047 ft 343 kts 103°
2026-04-12 20:32 31.70922 -98.10039 25045 ft 343 kts 103°
2026-04-12 20:33 31.70822 -98.08189 25044 ft 343 kts 103°
2026-04-12 20:33 31.70672 -98.05394 25050 ft 343 kts 103°
2026-04-12 20:33 31.70472 -98.01651 25057 ft 344 kts 103°
2026-04-12 20:33 31.70321 -97.98881 25050 ft 345 kts 103°
2026-04-12 20:34 31.70166 -97.96067 25049 ft 345 kts 103°
2026-04-12 20:34 31.70013 -97.93257 25040 ft 345 kts 103°
2026-04-12 20:34 31.69860 -97.90449 25044 ft 344 kts 103°
2026-04-12 20:34 31.69707 -97.87647 25044 ft 344 kts 103°
2026-04-12 20:35 31.69553 -97.84843 25043 ft 344 kts 103°
2026-04-12 20:35 31.69398 -97.82045 25054 ft 343 kts 103°
2026-04-12 20:35 31.69243 -97.79240 25059 ft 343 kts 103°
2026-04-12 20:35 31.69087 -97.76448 25058 ft 343 kts 103°
2026-04-12 20:36 31.68931 -97.73654 25062 ft 342 kts 103°
2026-04-12 20:36 31.68775 -97.70868 25061 ft 342 kts 103°
2026-04-12 20:36 31.68617 -97.68078 25064 ft 342 kts 103°
2026-04-12 20:36 31.68460 -97.65322 25058 ft 342 kts 103°
2026-04-12 20:37 31.68302 -97.62532 25059 ft 342 kts 103°
2026-04-12 20:37 31.68142 -97.59748 25065 ft 342 kts 103°
2026-04-12 20:37 31.67982 -97.56962 25073 ft 342 kts 103°
2026-04-12 20:37 31.67821 -97.54177 25074 ft 342 kts 103°
2026-04-12 20:38 31.67659 -97.51388 25068 ft 342 kts 103°
2026-04-12 20:38 31.67498 -97.48601 25073 ft 341 kts 103°
2026-04-12 20:38 31.67335 -97.45820 25069 ft 341 kts 103°
2026-04-12 20:38 31.67173 -97.43037 25076 ft 341 kts 102°
2026-04-12 20:39 31.67012 -97.40291 25074 ft 341 kts 102°
2026-04-12 20:39 31.66848 -97.37503 25069 ft 341 kts 102°
2026-04-12 20:39 31.66683 -97.34727 25074 ft 341 kts 103°
2026-04-12 20:39 31.66518 -97.31941 25074 ft 341 kts 102°
2026-04-12 20:40 31.66347 -97.29168 25077 ft 340 kts 104°
2026-04-12 20:40 31.66068 -97.26433 25075 ft 336 kts 108°
2026-04-12 20:40 31.65642 -97.23745 25073 ft 333 kts 111°
2026-04-12 20:40 31.65146 -97.21095 25073 ft 332 kts 111°
2026-04-12 20:41 31.64654 -97.18445 25074 ft 332 kts 111°
2026-04-12 20:41 31.64163 -97.15800 25076 ft 332 kts 111°
2026-04-12 20:41 31.63678 -97.13187 25094 ft 332 kts 111°
2026-04-12 20:41 31.63179 -97.10509 25094 ft 332 kts 111°
2026-04-12 20:42 31.62693 -97.07901 25090 ft 331 kts 111°
2026-04-12 20:42 31.62201 -97.05261 25091 ft 331 kts 111°
2026-04-12 20:42 31.61708 -97.02620 25095 ft 331 kts 111°
2026-04-12 20:42 31.61213 -96.99971 25095 ft 331 kts 111°
2026-04-12 20:43 31.60719 -96.97335 25094 ft 331 kts 111°
2026-04-12 20:43 31.60226 -96.94701 25092 ft 330 kts 111°
2026-04-12 20:43 31.59737 -96.92098 25091 ft 330 kts 111°
2026-04-12 20:43 31.59237 -96.89437 25092 ft 330 kts 111°
2026-04-12 20:44 31.58742 -96.86808 25091 ft 330 kts 111°
2026-04-12 20:44 31.58247 -96.84180 25089 ft 330 kts 111°
2026-04-12 20:44 31.57758 -96.81589 25087 ft 329 kts 111°
2026-04-12 20:44 31.57262 -96.78963 25093 ft 329 kts 111°
2026-04-12 20:45 31.56766 -96.76339 25098 ft 329 kts 111°
2026-04-12 20:45 31.56273 -96.73729 25102 ft 328 kts 111°
2026-04-12 20:45 31.55777 -96.71107 25102 ft 328 kts 111°
2026-04-12 20:45 31.55284 -96.68506 25104 ft 327 kts 111°
2026-04-12 20:46 31.54789 -96.65899 25110 ft 327 kts 111°
2026-04-12 20:46 31.54295 -96.63301 25111 ft 326 kts 111°
2026-04-12 20:46 31.53801 -96.60704 25108 ft 326 kts 111°
2026-04-12 20:46 31.53306 -96.58116 25111 ft 325 kts 111°
2026-04-12 20:47 31.52819 -96.55561 25109 ft 325 kts 111°
2026-04-12 20:47 31.52326 -96.52979 25114 ft 324 kts 111°
2026-04-12 20:47 31.51834 -96.50399 25112 ft 324 kts 111°
2026-04-12 20:47 31.51336 -96.47813 25004 ft 327 kts 111°
2026-04-12 20:48 31.50827 -96.45194 24842 ft 332 kts 111°
2026-04-12 20:48 31.50311 -96.42541 24683 ft 335 kts 111°
2026-04-12 20:48 31.49792 -96.39861 24519 ft 338 kts 111°
2026-04-12 20:48 31.49272 -96.37166 24354 ft 340 kts 111°
2026-04-12 20:49 31.48750 -96.34458 24191 ft 341 kts 111°
2026-04-12 20:49 31.48229 -96.31745 24038 ft 342 kts 110°
2026-04-12 20:49 31.47712 -96.29062 23883 ft 342 kts 110°
2026-04-12 20:49 31.47187 -96.26338 23723 ft 343 kts 110°
2026-04-12 20:50 31.46660 -96.23611 23545 ft 343 kts 110°
2026-04-12 20:50 31.46133 -96.20890 23354 ft 343 kts 110°
2026-04-12 20:50 31.45604 -96.18160 23167 ft 343 kts 110°
2026-04-12 20:50 31.45082 -96.15458 23123 ft 339 kts 109°
2026-04-12 20:51 31.44569 -96.12780 23105 ft 334 kts 109°
2026-04-12 20:51 31.44061 -96.10131 23102 ft 331 kts 109°
2026-04-12 20:51 31.43563 -96.07551 23098 ft 327 kts 109°
2026-04-12 20:51 31.43061 -96.04970 23100 ft 324 kts 109°
2026-04-12 20:52 31.42560 -96.02404 23101 ft 321 kts 109°
2026-04-12 20:52 31.42062 -95.99864 23094 ft 319 kts 109°
2026-04-12 20:52 31.41565 -95.97336 23097 ft 318 kts 109°
2026-04-12 20:52 31.41070 -95.94819 23100 ft 316 kts 109°
2026-04-12 20:53 31.40576 -95.92314 23101 ft 316 kts 109°
2026-04-12 20:53 31.40083 -95.89816 23094 ft 315 kts 109°
2026-04-12 20:53 31.39591 -95.87319 23096 ft 314 kts 109°
2026-04-12 20:53 31.39099 -95.84829 23097 ft 314 kts 109°
2026-04-12 20:54 31.38608 -95.82345 23098 ft 313 kts 109°
2026-04-12 20:54 31.38118 -95.79866 23098 ft 311 kts 109°
2026-04-12 20:54 31.37632 -95.77405 23098 ft 310 kts 109°
2026-04-12 20:54 31.37147 -95.74953 23102 ft 308 kts 109°
2026-04-12 20:55 31.36670 -95.72542 23095 ft 307 kts 109°
2026-04-12 20:55 31.36189 -95.70110 23109 ft 306 kts 109°
2026-04-12 20:55 31.35709 -95.67692 23107 ft 304 kts 109°
2026-04-12 20:55 31.35231 -95.65285 23109 ft 303 kts 109°
2026-04-12 20:56 31.34753 -95.62886 23110 ft 302 kts 110°
2026-04-12 20:56 31.34274 -95.60493 23108 ft 302 kts 110°
2026-04-12 20:56 31.33798 -95.58107 23114 ft 301 kts 110°
2026-04-12 20:56 31.33324 -95.55730 23112 ft 300 kts 110°
2026-04-12 20:57 31.33010 -95.54158 23120 ft 299 kts 110°
2026-04-12 20:57 31.32537 -95.51790 23121 ft 299 kts 110°
2026-04-12 20:57 31.32063 -95.49419 23121 ft 298 kts 110°
2026-04-12 20:57 31.31592 -95.47066 23120 ft 298 kts 110°
2026-04-12 20:58 31.31120 -95.44710 23124 ft 297 kts 110°
2026-04-12 20:58 31.30648 -95.42355 23121 ft 297 kts 110°
2026-04-12 20:58 31.30175 -95.40002 23121 ft 297 kts 110°
2026-04-12 20:58 31.29549 -95.36890 23122 ft 297 kts 110°
2026-04-12 20:59 31.29227 -95.35296 23123 ft 297 kts 110°
2026-04-12 20:59 31.28753 -95.32939 23122 ft 298 kts 110°
2026-04-12 20:59 31.28284 -95.30612 23121 ft 298 kts 110°
2026-04-12 20:59 31.27809 -95.28257 23122 ft 298 kts 110°
2026-04-12 21:00 31.27330 -95.25887 23116 ft 299 kts 110°
2026-04-12 21:00 31.26853 -95.23515 23116 ft 299 kts 110°
2026-04-12 21:00 31.26374 -95.21143 23115 ft 300 kts 110°
2026-04-12 21:00 31.25892 -95.18767 23110 ft 301 kts 110°
2026-04-12 21:01 31.25405 -95.16387 23111 ft 301 kts 110°
2026-04-12 21:01 31.24918 -95.14002 23107 ft 302 kts 110°
2026-04-12 21:01 31.24430 -95.11609 23106 ft 303 kts 111°
2026-04-12 21:01 31.23944 -95.09216 23106 ft 303 kts 111°
2026-04-12 21:02 31.23456 -95.06816 23115 ft 304 kts 111°
2026-04-12 21:02 31.22966 -95.04412 23119 ft 304 kts 111°
2026-04-12 21:02 31.22474 -95.02000 23127 ft 304 kts 111°
2026-04-12 21:02 31.21988 -94.99621 23132 ft 305 kts 110°
2026-04-12 21:03 31.21497 -94.97217 23140 ft 305 kts 111°
2026-04-12 21:03 31.21001 -94.94798 23140 ft 305 kts 111°
2026-04-12 21:03 31.20507 -94.92382 23148 ft 306 kts 110°
2026-04-12 21:03 31.20010 -94.89959 23146 ft 306 kts 111°
2026-04-12 21:04 31.19511 -94.87540 23148 ft 306 kts 111°
2026-04-12 21:04 31.19013 -94.85118 23152 ft 307 kts 111°
2026-04-12 21:04 31.18521 -94.82723 23155 ft 307 kts 111°
2026-04-12 21:04 31.18022 -94.80298 23157 ft 307 kts 111°
2026-04-12 21:05 31.17523 -94.77874 23164 ft 307 kts 110°
2026-04-12 21:05 31.17021 -94.75444 23160 ft 308 kts 111°
2026-04-12 21:05 31.16556 -94.72996 23159 ft 310 kts 106°
2026-04-12 21:05 31.16347 -94.70470 23157 ft 316 kts 97°
2026-04-12 21:06 31.16458 -94.67883 23159 ft 319 kts 91°
2026-04-12 21:06 31.16608 -94.65303 23157 ft 318 kts 92°
2026-04-12 21:06 31.16729 -94.62722 23155 ft 318 kts 92°
2026-04-12 21:06 31.16845 -94.60170 23157 ft 319 kts 92°
2026-04-12 21:07 31.16964 -94.57584 23154 ft 319 kts 92°
2026-04-12 21:07 31.17085 -94.54999 23152 ft 319 kts 92°
2026-04-12 21:07 31.17211 -94.52414 23151 ft 319 kts 92°
2026-04-12 21:07 31.17336 -94.49828 23148 ft 319 kts 92°
2026-04-12 21:08 31.17462 -94.47249 23145 ft 319 kts 92°
2026-04-12 21:08 31.17587 -94.44641 23150 ft 322 kts 92°
2026-04-12 21:08 31.17712 -94.42020 23149 ft 325 kts 92°
2026-04-12 21:08 31.17839 -94.39372 23151 ft 327 kts 92°
2026-04-12 21:09 31.17967 -94.36714 23148 ft 328 kts 92°
2026-04-12 21:09 31.18097 -94.34043 23149 ft 329 kts 92°
2026-04-12 21:09 31.18226 -94.31370 23154 ft 330 kts 92°
2026-04-12 21:09 31.18355 -94.28686 23154 ft 331 kts 92°
2026-04-12 21:10 31.18483 -94.25998 23154 ft 332 kts 91°
2026-04-12 21:10 31.18612 -94.23305 23154 ft 332 kts 91°
2026-04-12 21:10 31.18740 -94.20610 23154 ft 333 kts 91°
2026-04-12 21:10 31.18867 -94.17906 23210 ft 332 kts 91°
2026-04-12 21:11 31.18995 -94.15268 23487 ft 326 kts 91°
2026-04-12 21:11 31.19125 -94.12639 23797 ft 321 kts 91°
2026-04-12 21:11 31.19253 -94.10057 24060 ft 316 kts 92°
2026-04-12 21:11 31.19377 -94.07505 24334 ft 313 kts 92°
2026-04-12 21:12 31.19494 -94.04980 24597 ft 310 kts 92°
2026-04-12 21:12 31.19610 -94.02477 24840 ft 308 kts 92°
2026-04-12 21:12 31.19721 -93.99964 24991 ft 311 kts 92°
2026-04-12 21:12 31.19831 -93.97425 25102 ft 315 kts 92°
2026-04-12 21:13 31.19941 -93.94847 25142 ft 321 kts 92°
2026-04-12 21:13 31.20052 -93.92219 25155 ft 326 kts 92°
2026-04-12 21:13 31.20167 -93.89550 25159 ft 330 kts 92°
2026-04-12 21:13 31.20284 -93.86900 25160 ft 333 kts 92°
2026-04-12 21:14 31.20405 -93.84194 25167 ft 335 kts 92°
2026-04-12 21:14 31.20526 -93.81470 25165 ft 337 kts 92°
2026-04-12 21:14 31.20648 -93.78734 25165 ft 338 kts 92°
2026-04-12 21:14 31.20769 -93.75986 25167 ft 339 kts 92°
2026-04-12 21:15 31.20889 -93.73236 25165 ft 340 kts 92°
2026-04-12 21:15 31.21010 -93.70480 25165 ft 340 kts 92°
2026-04-12 21:15 31.21131 -93.67714 25167 ft 341 kts 92°
2026-04-12 21:15 31.21250 -93.64942 25166 ft 341 kts 92°
2026-04-12 21:16 31.21369 -93.62172 25167 ft 341 kts 92°
2026-04-12 21:16 31.21487 -93.59436 25169 ft 341 kts 92°
2026-04-12 21:16 31.21605 -93.56664 25173 ft 341 kts 92°
2026-04-12 21:16 31.21722 -93.53892 25177 ft 341 kts 92°
2026-04-12 21:17 31.21838 -93.51126 25175 ft 341 kts 92°
2026-04-12 21:17 31.21953 -93.48349 25172 ft 341 kts 92°
2026-04-12 21:17 31.22068 -93.45582 25177 ft 341 kts 92°
2026-04-12 21:17 31.22182 -93.42820 25176 ft 341 kts 92°
2026-04-12 21:18 31.22296 -93.40049 25175 ft 341 kts 92°
2026-04-12 21:18 31.22407 -93.37322 25174 ft 340 kts 92°
2026-04-12 21:18 31.22520 -93.34562 25182 ft 340 kts 92°
2026-04-12 21:18 31.22632 -93.31799 25180 ft 340 kts 92°
2026-04-12 21:19 31.22742 -93.29036 25179 ft 340 kts 92°
2026-04-12 21:19 31.22853 -93.26268 25178 ft 340 kts 92°
2026-04-12 21:19 31.22963 -93.23505 25180 ft 340 kts 92°
2026-04-12 21:19 31.23072 -93.20739 25181 ft 340 kts 92°
2026-04-12 21:20 31.23181 -93.17980 25185 ft 340 kts 92°
2026-04-12 21:20 31.23289 -93.15224 25183 ft 340 kts 92°
2026-04-12 21:20 31.23396 -93.12466 25184 ft 339 kts 92°
2026-04-12 21:20 31.23503 -93.09709 25185 ft 339 kts 92°
2026-04-12 21:21 31.23608 -93.06989 25189 ft 339 kts 92°
2026-04-12 21:21 31.23713 -93.04233 25190 ft 339 kts 92°
2026-04-12 21:21 31.23818 -93.01473 25194 ft 339 kts 92°
2026-04-12 21:21 31.23922 -92.98723 25193 ft 339 kts 92°
2026-04-12 21:22 31.24026 -92.95965 25193 ft 339 kts 92°
2026-04-12 21:22 31.24129 -92.93203 25195 ft 339 kts 92°
2026-04-12 21:22 31.24230 -92.90482 25199 ft 339 kts 92°
2026-04-12 21:22 31.24331 -92.87730 25196 ft 339 kts 92°
2026-04-12 21:23 31.24432 -92.84976 25192 ft 338 kts 92°
2026-04-12 21:23 31.24534 -92.82227 25190 ft 338 kts 92°
2026-04-12 21:23 31.24633 -92.79479 25187 ft 338 kts 92°
2026-04-12 21:23 31.24733 -92.76728 25182 ft 338 kts 92°
2026-04-12 21:24 31.24832 -92.73983 25186 ft 338 kts 92°
2026-04-12 21:24 31.24930 -92.71242 25184 ft 337 kts 92°
2026-04-12 21:24 31.25027 -92.68501 25180 ft 337 kts 92°
2026-04-12 21:24 31.25123 -92.65765 25179 ft 337 kts 93°
2026-04-12 21:25 31.25218 -92.63030 25180 ft 337 kts 92°
2026-04-12 21:25 31.25314 -92.60291 25176 ft 337 kts 92°
2026-04-12 21:25 31.25408 -92.57590 25176 ft 337 kts 93°
2026-04-12 21:25 31.25501 -92.54852 25175 ft 337 kts 93°
2026-04-12 21:26 31.25581 -92.52121 25176 ft 336 kts 95°
2026-04-12 21:26 31.25245 -92.46723 25181 ft 331 kts 104°
2026-04-12 21:26 31.24902 -92.44067 25181 ft 331 kts 104°
2026-04-12 21:27 31.24561 -92.41400 25183 ft 331 kts 104°
2026-04-12 21:27 31.24221 -92.38736 25173 ft 331 kts 104°
2026-04-12 21:27 31.23881 -92.36068 25168 ft 331 kts 104°
2026-04-12 21:27 31.23541 -92.33411 25167 ft 330 kts 104°
2026-04-12 21:28 31.23206 -92.30791 25172 ft 330 kts 104°
2026-04-12 21:28 31.22867 -92.28144 25166 ft 329 kts 104°
2026-04-12 21:28 31.22525 -92.25486 25168 ft 329 kts 104°
2026-04-12 21:28 31.22185 -92.22843 25175 ft 329 kts 104°
2026-04-12 21:29 31.21844 -92.20201 25188 ft 328 kts 104°
2026-04-12 21:29 31.21503 -92.17566 25191 ft 328 kts 104°
2026-04-12 21:29 31.21165 -92.14957 25187 ft 328 kts 104°
2026-04-12 21:29 31.20823 -92.12323 25193 ft 328 kts 104°
2026-04-12 21:30 31.20480 -92.09684 25190 ft 328 kts 104°
2026-04-12 21:30 31.20137 -92.07050 25193 ft 328 kts 104°
2026-04-12 21:30 31.19794 -92.04418 25198 ft 327 kts 104°
2026-04-12 21:30 31.19452 -92.01790 25195 ft 327 kts 104°
2026-04-12 21:31 31.19107 -91.99156 25194 ft 327 kts 104°
2026-04-12 21:31 31.18762 -91.96527 25191 ft 327 kts 104°
2026-04-12 21:31 31.18418 -91.93900 25190 ft 327 kts 104°
2026-04-12 21:31 31.18073 -91.91276 25193 ft 327 kts 104°
2026-04-12 21:32 31.17733 -91.88688 25193 ft 327 kts 104°
2026-04-12 21:32 31.17387 -91.86066 25191 ft 326 kts 104°
2026-04-12 21:32 31.17041 -91.83445 25191 ft 326 kts 104°
2026-04-12 21:32 31.16694 -91.80821 25193 ft 326 kts 104°
2026-04-12 21:33 31.16346 -91.78197 25193 ft 326 kts 104°
2026-04-12 21:33 31.15999 -91.75582 25195 ft 326 kts 104°
2026-04-12 21:33 31.15650 -91.72962 25197 ft 326 kts 104°
2026-04-12 21:33 31.15302 -91.70349 25199 ft 326 kts 104°
2026-04-12 21:34 31.14958 -91.67765 25202 ft 326 kts 104°
2026-04-12 21:34 31.14609 -91.65155 25197 ft 326 kts 104°
2026-04-12 21:34 31.14261 -91.62546 25201 ft 326 kts 104°
2026-04-12 21:34 31.13911 -91.59934 25205 ft 325 kts 104°
2026-04-12 21:35 31.13560 -91.57322 25203 ft 325 kts 104°
2026-04-12 21:35 31.13209 -91.54713 25207 ft 325 kts 104°
2026-04-12 21:35 31.12859 -91.52108 25208 ft 325 kts 104°
2026-04-12 21:35 31.12507 -91.49495 25212 ft 325 kts 104°
2026-04-12 21:36 31.12155 -91.46888 25213 ft 325 kts 104°
2026-04-12 21:36 31.11802 -91.44278 25212 ft 325 kts 104°
2026-04-12 21:36 31.11448 -91.41671 25213 ft 325 kts 104°
2026-04-12 21:36 31.11095 -91.39063 25213 ft 325 kts 104°
2026-04-12 21:37 31.10744 -91.36486 25216 ft 325 kts 104°
2026-04-12 21:37 31.10389 -91.33875 25220 ft 325 kts 104°
2026-04-12 21:37 31.10034 -91.31273 25225 ft 325 kts 104°
2026-04-12 21:37 31.09678 -91.28664 25224 ft 325 kts 104°
2026-04-12 21:38 31.09322 -91.26059 25221 ft 325 kts 104°
2026-04-12 21:38 31.08966 -91.23451 25226 ft 325 kts 104°
2026-04-12 21:38 31.08608 -91.20843 25224 ft 325 kts 104°
2026-04-12 21:38 31.08250 -91.18237 25230 ft 325 kts 104°
2026-04-12 21:39 31.07890 -91.15633 25232 ft 325 kts 104°
2026-04-12 21:39 31.07530 -91.13029 25233 ft 325 kts 104°
2026-04-12 21:39 31.07170 -91.10423 25232 ft 325 kts 104°
2026-04-12 21:39 31.06810 -91.07813 25232 ft 325 kts 104°
2026-04-12 21:40 31.06455 -91.05240 25231 ft 325 kts 104°
2026-04-12 21:40 31.06095 -91.02632 25232 ft 325 kts 104°
2026-04-12 21:40 31.05734 -91.00030 25228 ft 325 kts 104°
2026-04-12 21:40 31.05371 -90.97417 25231 ft 325 kts 104°
2026-04-12 21:41 31.05009 -90.94819 25233 ft 324 kts 104°
2026-04-12 21:41 31.04647 -90.92226 25235 ft 324 kts 104°
2026-04-12 21:41 31.04288 -90.89658 25238 ft 324 kts 104°
2026-04-12 21:41 31.03924 -90.87057 25235 ft 324 kts 104°
2026-04-12 21:42 31.03560 -90.84462 25237 ft 324 kts 104°
2026-04-12 21:42 31.03196 -90.81863 25240 ft 324 kts 104°
2026-04-12 21:42 31.02835 -90.79295 25242 ft 324 kts 104°
2026-04-12 21:42 31.02469 -90.76699 25238 ft 324 kts 104°
2026-04-12 21:43 31.02105 -90.74109 25242 ft 324 kts 104°
2026-04-12 21:43 31.01738 -90.71510 25242 ft 324 kts 104°
2026-04-12 21:43 31.01371 -90.68920 25242 ft 324 kts 104°
2026-04-12 21:43 31.01002 -90.66331 25245 ft 324 kts 104°
2026-04-12 21:44 31.00632 -90.63733 25244 ft 324 kts 104°
2026-04-12 21:44 31.00264 -90.61143 25241 ft 324 kts 104°
2026-04-12 21:44 31.00021 -90.59428 25243 ft 324 kts 104°
2026-04-12 21:44 30.99652 -90.56831 25246 ft 324 kts 104°
2026-04-12 21:45 30.99283 -90.54241 25250 ft 324 kts 104°
2026-04-12 21:45 30.98914 -90.51650 25249 ft 324 kts 104°
2026-04-12 21:45 30.98542 -90.49051 25247 ft 324 kts 104°
2026-04-12 21:45 30.98173 -90.46465 25246 ft 323 kts 104°
2026-04-12 21:46 30.97802 -90.43881 25253 ft 323 kts 104°
2026-04-12 21:46 30.97436 -90.41329 25251 ft 323 kts 104°
2026-04-12 21:46 30.97066 -90.38751 25249 ft 323 kts 104°
2026-04-12 21:46 30.96695 -90.36173 25252 ft 322 kts 104°
2026-04-12 21:47 30.96323 -90.33593 25247 ft 322 kts 104°
2026-04-12 21:47 30.95952 -90.31017 25253 ft 322 kts 104°
2026-04-12 21:47 30.95578 -90.28439 25250 ft 322 kts 104°
2026-04-12 21:47 30.95204 -90.25864 25252 ft 322 kts 104°
2026-04-12 21:48 30.94833 -90.23285 25254 ft 322 kts 104°
2026-04-12 21:48 30.94461 -90.20712 25253 ft 322 kts 104°
2026-04-12 21:48 30.94088 -90.18141 25256 ft 322 kts 104°
2026-04-12 21:48 30.93717 -90.15606 25256 ft 322 kts 104°
2026-04-12 21:49 30.93335 -90.13005 25257 ft 322 kts 104°
2026-04-12 21:49 30.92961 -90.10457 25258 ft 323 kts 104°
2026-04-12 21:49 30.92579 -90.07868 25257 ft 324 kts 104°
2026-04-12 21:49 30.92198 -90.05279 25262 ft 324 kts 104°
2026-04-12 21:50 30.91816 -90.02685 25259 ft 325 kts 104°
2026-04-12 21:50 30.91437 -90.00110 25262 ft 326 kts 104°
2026-04-12 21:50 30.91049 -89.97473 25260 ft 326 kts 104°
2026-04-12 21:50 30.90671 -89.94904 25258 ft 326 kts 104°
2026-04-12 21:51 30.90287 -89.92299 25259 ft 326 kts 104°
2026-04-12 21:51 30.89902 -89.89689 25261 ft 326 kts 104°
2026-04-12 21:51 30.89518 -89.87089 25258 ft 326 kts 104°
2026-04-12 21:51 30.89132 -89.84484 25258 ft 326 kts 104°
2026-04-12 21:52 30.88745 -89.81879 25259 ft 326 kts 104°
2026-04-12 21:52 30.88359 -89.79275 25261 ft 326 kts 104°
2026-04-12 21:52 30.87971 -89.76672 25260 ft 326 kts 104°
2026-04-12 21:52 30.87588 -89.74103 25258 ft 326 kts 104°
2026-04-12 21:53 30.87199 -89.71501 25258 ft 326 kts 104°
2026-04-12 21:53 30.86810 -89.68899 25260 ft 326 kts 104°
2026-04-12 21:53 30.86418 -89.66285 25265 ft 326 kts 104°
2026-04-12 21:53 30.86028 -89.63685 25263 ft 326 kts 104°
2026-04-12 21:54 30.85639 -89.61085 25263 ft 327 kts 104°
2026-04-12 21:54 30.85246 -89.58476 25263 ft 326 kts 104°
2026-04-12 21:54 30.84853 -89.55868 25262 ft 326 kts 104°
2026-04-12 21:54 30.84460 -89.53269 25265 ft 326 kts 104°
2026-04-12 21:55 30.84072 -89.50698 25269 ft 327 kts 104°
2026-04-12 21:55 30.83679 -89.48098 25267 ft 326 kts 104°
2026-04-12 21:55 30.83286 -89.45499 25270 ft 326 kts 104°
2026-04-12 21:55 30.82892 -89.42898 25270 ft 326 kts 104°
2026-04-12 21:56 30.82496 -89.40292 25272 ft 326 kts 104°
2026-04-12 21:56 30.82098 -89.37680 25273 ft 327 kts 104°
2026-04-12 21:56 30.81700 -89.35078 25267 ft 326 kts 104°
2026-04-12 21:56 30.81309 -89.32511 25273 ft 326 kts 104°
2026-04-12 21:57 30.80911 -89.29905 25271 ft 326 kts 104°
2026-04-12 21:57 30.80514 -89.27306 25268 ft 327 kts 104°
2026-04-12 21:57 30.80116 -89.24704 25266 ft 327 kts 104°
2026-04-12 21:57 30.79718 -89.22098 25272 ft 326 kts 104°
2026-04-12 21:58 30.79320 -89.19500 25271 ft 327 kts 104°
2026-04-12 21:58 30.78919 -89.16898 25266 ft 326 kts 104°
2026-04-12 21:58 30.78518 -89.14295 25263 ft 326 kts 104°
2026-04-12 21:58 30.78116 -89.11687 25266 ft 326 kts 104°
2026-04-12 21:59 30.77718 -89.09119 25270 ft 326 kts 104°
2026-04-12 21:59 30.77316 -89.06516 25269 ft 326 kts 104°
2026-04-12 21:59 30.76914 -89.03919 25268 ft 326 kts 104°
2026-04-12 21:59 30.76513 -89.01326 25271 ft 326 kts 104°
2026-04-12 22:00 30.76109 -88.98721 25276 ft 326 kts 104°
2026-04-12 22:00 30.75705 -88.96125 25271 ft 326 kts 104°
2026-04-12 22:00 30.75297 -88.93513 25127 ft 331 kts 104°
2026-04-12 22:00 30.74878 -88.90876 24773 ft 342 kts 104°
2026-04-12 22:01 30.74434 -88.88121 24361 ft 350 kts 104°
2026-04-12 22:01 30.73981 -88.85327 23959 ft 351 kts 103°
2026-04-12 22:01 30.73537 -88.82538 23506 ft 351 kts 103°
2026-04-12 22:01 30.73099 -88.79741 23036 ft 352 kts 103°
2026-04-12 22:02 30.72661 -88.76942 22574 ft 353 kts 103°
2026-04-12 22:02 30.72220 -88.74135 22116 ft 353 kts 103°
2026-04-12 22:02 30.71775 -88.71325 21665 ft 354 kts 103°
2026-04-12 22:02 30.71326 -88.68512 21221 ft 354 kts 103°
2026-04-12 22:03 30.70877 -88.65697 20785 ft 353 kts 103°
2026-04-12 22:03 30.70432 -88.62889 20357 ft 354 kts 103°
2026-04-12 22:03 30.69993 -88.60078 19929 ft 354 kts 102°
2026-04-12 22:03 30.69562 -88.57294 19526 ft 354 kts 102°
2026-04-12 22:04 30.69117 -88.54444 19105 ft 354 kts 103°
2026-04-12 22:04 30.68680 -88.51643 18699 ft 350 kts 101°
2026-04-12 22:04 30.68248 -88.48907 18261 ft 346 kts 102°
2026-04-12 22:04 30.67809 -88.46168 17795 ft 343 kts 102°
2026-04-12 22:05 30.67377 -88.43449 17351 ft 341 kts 102°
2026-04-12 22:05 30.66951 -88.40755 16907 ft 337 kts 102°
2026-04-12 22:05 30.66521 -88.38092 16458 ft 333 kts 102°
2026-04-12 22:05 30.66096 -88.35458 16018 ft 331 kts 102°
2026-04-12 22:06 30.65677 -88.32839 15587 ft 328 kts 103°
2026-04-12 22:06 30.65258 -88.30258 15169 ft 320 kts 103°
2026-04-12 22:06 30.64853 -88.27743 14746 ft 313 kts 102°
2026-04-12 22:06 30.64475 -88.25304 14339 ft 308 kts 103°
2026-04-12 22:07 30.64101 -88.22873 13912 ft 303 kts 103°
2026-04-12 22:07 30.63722 -88.20481 13446 ft 299 kts 103°
2026-04-12 22:07 30.63341 -88.18132 12988 ft 294 kts 103°
2026-04-12 22:07 30.62967 -88.15831 12555 ft 286 kts 104°
2026-04-12 22:08 30.62600 -88.13579 12115 ft 282 kts 104°
2026-04-12 22:08 30.62235 -88.11363 11673 ft 277 kts 104°
2026-04-12 22:08 30.61878 -88.09180 11234 ft 273 kts 103°
2026-04-12 22:08 30.61362 -88.07095 10819 ft 265 kts 119°
2026-04-12 22:09 30.60296 -88.05431 10400 ft 258 kts 140°
2026-04-12 22:09 30.58816 -88.04294 9963 ft 254 kts 158°
2026-04-12 22:09 30.57185 -88.03537 9495 ft 251 kts 158°
2026-04-12 22:09 30.55587 -88.02712 9030 ft 250 kts 156°
2026-04-12 22:10 30.54009 -88.01887 8584 ft 247 kts 157°
2026-04-12 22:10 30.52443 -88.01079 8130 ft 245 kts 157°
2026-04-12 22:10 30.50887 -88.00282 7691 ft 243 kts 157°
2026-04-12 22:10 30.49360 -87.99508 7264 ft 242 kts 157°
2026-04-12 22:11 30.47818 -87.98730 6838 ft 240 kts 157°
2026-04-12 22:11 30.46297 -87.97959 6391 ft 235 kts 156°
2026-04-12 22:11 30.44819 -87.97206 5939 ft 229 kts 156°
2026-04-12 22:11 30.43378 -87.96468 5551 ft 224 kts 156°
2026-04-12 22:12 30.41965 -87.95748 5196 ft 219 kts 156°
2026-04-12 22:12 30.40599 -87.95056 4952 ft 210 kts 156°
2026-04-12 22:12 30.39272 -87.94384 4697 ft 205 kts 156°
2026-04-12 22:12 30.37995 -87.93739 4450 ft 200 kts 156°
2026-04-12 22:13 30.36724 -87.93100 4201 ft 198 kts 156°
2026-04-12 22:13 30.35468 -87.92467 3953 ft 195 kts 155°
2026-04-12 22:13 30.34225 -87.91843 3714 ft 194 kts 156°
2026-04-12 22:13 30.32990 -87.91220 3453 ft 193 kts 155°
2026-04-12 22:14 30.31765 -87.90603 3271 ft 189 kts 156°
2026-04-12 22:14 30.30580 -87.89996 3147 ft 183 kts 153°
2026-04-12 22:14 30.29611 -87.89106 3026 ft 179 kts 129°
2026-04-12 22:14 30.29069 -87.87825 2893 ft 178 kts 106°
2026-04-12 22:15 30.28993 -87.86383 2712 ft 182 kts 91°
2026-04-12 22:15 30.29006 -87.84915 2545 ft 183 kts 94°
2026-04-12 22:15 30.28989 -87.83436 2362 ft 184 kts 94°
2026-04-12 22:15 30.28993 -87.81979 2194 ft 177 kts 93°
2026-04-12 22:16 30.29002 -87.80584 2035 ft 171 kts 93°
2026-04-12 22:16 30.29005 -87.79228 1921 ft 160 kts 93°
2026-04-12 22:16 30.29013 -87.78037 1798 ft 148 kts 94°
2026-04-12 22:16 30.29012 -87.76835 1594 ft 151 kts 94°
2026-04-12 22:17 30.29011 -87.75620 1385 ft 150 kts 94°
2026-04-12 22:17 30.29013 -87.74430 1214 ft 146 kts 94°
2026-04-12 22:17 30.29020 -87.73295 996 ft 133 kts 95°
2026-04-12 22:17 30.29031 -87.72271 831 ft 123 kts 95°
2026-04-12 22:18 30.29027 -87.71300 651 ft 119 kts 95°
2026-04-12 22:18 30.29022 -87.70384 485 ft 108 kts 98°
2026-04-12 22:18 30.29023 -87.69526 338 ft 107 kts 98°
2026-04-12 22:18 30.29025 -87.68658 185 ft 107 kts 96°
2026-04-12 22:19 30.29030 -87.67839 42 ft 100 kts 94°
2026-04-12 22:19 30.29026 -87.67150 19 ft 69 kts 89°
2026-04-12 22:19 30.29030 -87.66782 21 ft 23 kts 89°
2026-04-12 22:19 30.29027 -87.66591 21 ft 18 kts 86°
2026-04-12 22:20 30.29025 -87.66523 21 ft 4 kts 33°
2026-04-12 22:20 30.29033 -87.66571 21 ft 10 kts 269°
2026-04-12 22:20 30.29032 -87.66667 21 ft 13 kts 269°
2026-04-12 22:20 30.29031 -87.66781 21 ft 15 kts 269°
2026-04-12 22:21 30.29015 -87.66882 21 ft 12 kts 202°
2026-04-12 22:21 30.28961 -87.66889 21 ft 8 kts 181°
2026-04-12 22:21 30.28921 -87.66913 21 ft 8 kts 270°
2026-04-12 22:21 30.28919 -87.66999 21 ft 12 kts 269°
2026-04-12 22:22 30.28920 -87.67106 23 ft 14 kts 270°
2026-04-12 22:22 30.28920 -87.67180 21 ft 14 kts 269°
2026-04-12 22:22 30.28920 -87.67300 23 ft 16 kts 270°
2026-04-12 22:22 30.28920 -87.67476 20 ft 17 kts 270°
2026-04-12 22:23 30.28920 -87.67603 20 ft 14 kts 270°
2026-04-12 22:23 30.28920 -87.67676 22 ft 14 kts 270°
2026-04-12 22:23 30.28920 -87.67814 20 ft 13 kts 270°
2026-04-12 22:23 30.28880 -87.67865 20 ft 9 kts 197°
2026-04-12 22:24 30.28825 -87.67886 20 ft 4 kts 216°
2026-04-12 22:24 30.28818 -87.67901 20 ft 2 kts 180°
2026-04-12 22:24 30.28816 -87.67901 20 ft 0 kts 179°